Weather History for KETH - November, 2012

Change the Weather History Date:

Saturday, November 24, 2012

  Actual Average (K8D3) Record (K8D3)
Temperature  
Mean Temperature 22 °F 26 °F  
Max Temperature 35 °F 35 °F 70 °F (1984)
Min Temperature 8 °F 17 °F -12 °F (1985)
Degree Days  
Heating Degree Days 44 39  
Month to date heating degree days 779  
Since 1 July heating degree days 1606  
Cooling Degree Days 0 0  
Month to date cooling degree days 0  
Year to date cooling degree days 527  
Moisture  
Dew Point 15 °F    
Average Humidity 76    
Maximum Humidity 92    
Minimum Humidity 64    
Precipitation  
Precipitation 0.00 in 0.01 in 0.75 in (2001)
Month to date precipitation 0.53  
Year to date precipitation 21.89  
Snow  
Snow 0.00 in - - ()
Month to date snowfall  
Since 1 July snowfall  
Snow Depth -    
Sea Level Pressure  
Sea Level Pressure 30.03 in    
Wind  
Wind Speed 7 mph (SE)    
Max Wind Speed 20 mph    
Max Gust Speed 25 mph    
Visibility 10 miles    
Events      
T = Trace of Precipitation, MM = Missing Value Source: NWS Daily Summary

Daily Weather History Graph

Daily Weather History Graph

Search for Another Location

Airport or City:

Trip Planner

Search our weather history database for the weather conditions in past years. The results will help you decide how hot, cold, wet, or windy it might be!

Date:

Astronomy

Nov. 24, 2012 Rise Set
Actual Time 7:38 AM CST 4:46 PM CST
Civil Twilight 7:05 AM CST 5:20 PM CST
Nautical Twilight 6:28 AM CST 5:56 PM CST
Astronomical Twilight 5:53 AM CST 6:32 PM CST
Moon 2:40 PM CST (11/24) 3:47 AM CST (11/24)
Length of Visible Light 10h 14m
Length of Day
9h 08m
Waxing Gibbous, 87% of the Moon is Illuminated
Nov 24
Waxing Gibbous
Nov 28
Full
Dec 6
Last Quarter
Dec 13
New
Dec 19
First Quarter

Hourly Weather History & Observations

Time (CST) Temp. Windchill Dew Point Humidity Pressure Visibility Wind Dir Wind Speed Gust Speed Precip Events Conditions
12:14 AM 10.4 °F - 6.8 °F 85% 30.37 in 10.0 mi Calm Calm - N/A   Clear
12:34 AM 10.4 °F - 6.8 °F 85% 30.37 in 10.0 mi Calm Calm - N/A   Clear
12:54 AM 8.6 °F - 6.8 °F 92% 30.36 in 10.0 mi Calm Calm - N/A   Clear
1:14 AM 10.4 °F - 6.8 °F 85% 30.35 in 10.0 mi Calm Calm - N/A   Clear
1:35 AM 8.6 °F - 6.8 °F 92% 30.34 in 10.0 mi Calm Calm - N/A   Clear
1:54 AM 8.6 °F - 5.0 °F 85% 30.33 in 10.0 mi Calm Calm - N/A   Clear
2:14 AM 8.6 °F 2.0 °F 6.8 °F 92% 30.34 in 10.0 mi South 3.5 mph - N/A   Clear
2:34 AM 8.6 °F 2.0 °F 6.8 °F 92% 30.33 in 10.0 mi South 3.5 mph - N/A   Clear
2:54 AM 8.6 °F - 6.8 °F 92% 30.31 in 10.0 mi Calm Calm - N/A   Clear
3:14 AM 8.6 °F - 5.0 °F 85% 30.31 in 10.0 mi Calm Calm - N/A   Clear
3:35 AM 8.6 °F 2.0 °F 6.8 °F 92% 30.31 in 10.0 mi SSE 3.5 mph - N/A   Clear
3:55 AM 8.6 °F - 6.8 °F 92% 30.30 in 10.0 mi Calm Calm - N/A   Scattered Clouds
4:15 AM 10.4 °F 0.8 °F 8.6 °F 92% 30.29 in 10.0 mi SSE 5.8 mph - N/A   Mostly Cloudy
4:35 AM 12.2 °F 1.7 °F 8.6 °F 85% 30.27 in 10.0 mi ESE 6.9 mph - N/A   Overcast
4:55 AM 12.2 °F 0.7 °F 8.6 °F 85% 30.25 in 10.0 mi SE 8.1 mph - N/A   Overcast
5:14 AM 12.2 °F 0.7 °F 8.6 °F 85% 30.24 in 10.0 mi ESE 8.1 mph - N/A   Overcast
5:35 AM 12.2 °F -0.2 °F 10.4 °F 92% 30.24 in 10.0 mi SE 9.2 mph - N/A   Overcast
5:55 AM 12.2 °F 0.7 °F 8.6 °F 85% 30.24 in 10.0 mi SE 8.1 mph - N/A   Overcast
6:15 AM 12.2 °F -1.0 °F 8.6 °F 85% 30.22 in 10.0 mi SE 10.4 mph - N/A   Overcast
6:35 AM 14.0 °F -0.2 °F 10.4 °F 86% 30.22 in 10.0 mi SE 12.7 mph - N/A   Overcast
6:55 AM 14.0 °F 1.2 °F 10.4 °F 86% 30.20 in 10.0 mi SSE 10.4 mph - N/A   Overcast
7:14 AM 14.0 °F -0.8 °F 10.4 °F 86% 30.19 in 10.0 mi SE 13.8 mph - N/A   Overcast
7:34 AM 14.0 °F 1.2 °F 10.4 °F 86% 30.19 in 10.0 mi SSE 10.4 mph - N/A   Overcast
7:54 AM 14.0 °F -0.2 °F 10.4 °F 86% 30.16 in 10.0 mi SE 12.7 mph - N/A   Overcast
8:15 AM 15.8 °F 2.7 °F 10.4 °F 79% 30.15 in 10.0 mi SSE 11.5 mph - N/A   Overcast
8:34 AM 15.8 °F 1.4 °F 10.4 °F 79% 30.15 in 10.0 mi SE 13.8 mph - N/A   Overcast
8:54 AM 15.8 °F 0.3 °F 10.4 °F 79% 30.13 in 10.0 mi SE 16.1 mph - N/A   Mostly Cloudy
9:14 AM 15.8 °F -0.2 °F 10.4 °F 79% 30.12 in 10.0 mi SE 17.3 mph 20.7 mph N/A   Mostly Cloudy
9:34 AM 17.6 °F 2.2 °F 12.2 °F 79% 30.11 in 10.0 mi SE 17.3 mph - N/A   Mostly Cloudy
9:54 AM 17.6 °F 1.3 °F 12.2 °F 79% 30.08 in 10.0 mi SE 19.6 mph - N/A   Scattered Clouds
10:14 AM 19.4 °F 4.5 °F 12.2 °F 74% 30.06 in 10.0 mi SE 17.3 mph - N/A   Scattered Clouds
10:34 AM 19.4 °F 3.6 °F 12.2 °F 74% 30.05 in 10.0 mi SE 19.6 mph 25.3 mph N/A   Scattered Clouds
10:55 AM 21.2 °F 6.4 °F 14.0 °F 74% 30.03 in 10.0 mi SE 18.4 mph 23.0 mph N/A   Scattered Clouds
11:14 AM 21.2 °F 6.0 °F 14.0 °F 74% 30.00 in 10.0 mi SE 19.6 mph 25.3 mph N/A   Scattered Clouds
11:34 AM 21.2 °F 6.8 °F 15.8 °F 80% 30.00 in 10.0 mi SSE 17.3 mph 25.3 mph N/A   Clear
11:54 AM 23.0 °F 8.7 °F 15.8 °F 74% 29.98 in 10.0 mi SSE 18.4 mph - N/A   Clear
12:14 PM 24.8 °F 11.5 °F 15.8 °F 69% 29.96 in 10.0 mi SSE 17.3 mph - N/A   Scattered Clouds
12:34 PM 26.6 °F 13.8 °F 17.6 °F 69% 29.94 in 10.0 mi SE 17.3 mph 21.9 mph N/A   Clear
12:55 PM 26.6 °F 13.4 °F 17.6 °F 69% 29.92 in 10.0 mi SE 18.4 mph 24.2 mph N/A   Clear
1:14 PM 26.6 °F 14.3 °F 17.6 °F 69% 29.91 in 10.0 mi SE 16.1 mph - N/A   Scattered Clouds
1:34 PM 26.6 °F 14.3 °F 17.6 °F 69% 29.89 in 10.0 mi SE 16.1 mph - N/A   Scattered Clouds
1:55 PM 26.6 °F 15.2 °F 17.6 °F 69% 29.88 in 10.0 mi SSE 13.8 mph - N/A   Clear
2:15 PM 28.4 °F 17.0 °F 17.6 °F 64% 29.88 in 10.0 mi SE 15.0 mph - N/A   Clear
2:34 PM 28.4 °F 18.5 °F 17.6 °F 64% 29.87 in 10.0 mi SE 11.5 mph - N/A   Clear
2:54 PM 28.4 °F 18.5 °F 17.6 °F 64% 29.86 in 10.0 mi SE 11.5 mph - N/A   Clear
3:14 PM 28.4 °F 17.5 °F 17.6 °F 64% 29.85 in 10.0 mi SE 13.8 mph - N/A   Scattered Clouds
3:35 PM 28.4 °F 18.5 °F 17.6 °F 64% 29.84 in 10.0 mi SE 11.5 mph - N/A   Mostly Cloudy
3:55 PM 28.4 °F 18.5 °F 19.4 °F 69% 29.83 in 10.0 mi SE 11.5 mph - N/A   Overcast
4:15 PM 28.4 °F 18.5 °F 19.4 °F 69% 29.82 in 10.0 mi SE 11.5 mph - N/A   Overcast
4:35 PM 30.2 °F 21.3 °F 19.4 °F 64% 29.82 in 10.0 mi SE 10.4 mph - N/A   Overcast
4:54 PM 30.2 °F 23.4 °F 19.4 °F 64% 29.83 in 10.0 mi SE 6.9 mph - N/A   Overcast
5:15 PM 30.2 °F 25.4 °F 19.4 °F 64% 29.82 in 10.0 mi SSE 4.6 mph - N/A   Mostly Cloudy
5:34 PM 30.2 °F 26.7 °F 19.4 °F 64% 29.82 in 10.0 mi SE 3.5 mph - N/A   Overcast
5:55 PM 30.2 °F 26.7 °F 21.2 °F 69% 29.82 in 10.0 mi SSE 3.5 mph - N/A   Overcast
6:15 PM 32.0 °F - 21.2 °F 64% 29.83 in 10.0 mi Calm Calm - N/A   Overcast
6:35 PM 32.0 °F - 21.2 °F 64% 29.83 in 10.0 mi Calm Calm - N/A   Overcast
6:54 PM 30.2 °F - 21.2 °F 69% 29.83 in 10.0 mi Calm Calm - N/A   Overcast
7:14 PM 30.2 °F - 21.2 °F 69% 29.81 in 10.0 mi Calm Calm - N/A   Overcast
7:34 PM 30.2 °F - 21.2 °F 69% 29.82 in 10.0 mi Calm Calm - N/A   Mostly Cloudy
7:54 PM 30.2 °F - 21.2 °F 69% 29.82 in 10.0 mi Calm Calm - N/A   Mostly Cloudy
8:15 PM 30.2 °F - 21.2 °F 69% 29.83 in 10.0 mi Calm Calm - N/A   Overcast
8:34 PM 32.0 °F - 21.2 °F 64% 29.82 in 10.0 mi Calm Calm - N/A   Overcast
8:55 PM 30.2 °F - 21.2 °F 69% 29.82 in 10.0 mi Calm Calm - N/A   Mostly Cloudy
9:15 PM 30.2 °F 23.4 °F 19.4 °F 64% 29.82 in 10.0 mi West 6.9 mph - N/A   Scattered Clouds
9:34 PM 30.2 °F 22.6 °F 21.2 °F 69% 29.83 in 10.0 mi West 8.1 mph - N/A   Scattered Clouds
9:54 PM 33.8 °F 25.8 °F 24.8 °F 70% 29.83 in 10.0 mi WNW 10.4 mph - N/A   Mostly Cloudy
10:14 PM 33.8 °F 24.3 °F 24.8 °F 70% 29.84 in 10.0 mi WNW 13.8 mph 17.3 mph N/A   Overcast
10:35 PM 35.6 °F 25.9 °F 26.6 °F 70% 29.84 in 10.0 mi NW 16.1 mph 20.7 mph N/A   Overcast
10:54 PM 33.8 °F 23.2 °F 28.4 °F 81% 29.85 in 10.0 mi NW 17.3 mph 24.2 mph N/A   Overcast
11:14 PM 33.8 °F 25.3 °F 28.4 °F 81% 29.86 in 10.0 mi NNW 11.5 mph 24.2 mph N/A   Overcast
11:35 PM 32.0 °F 21.6 °F 26.6 °F 80% 29.88 in 10.0 mi NNW 15.0 mph 19.6 mph N/A   Overcast
11:55 PM 32.0 °F 20.8 °F 26.6 °F 80% 29.89 in 10.0 mi NNW 17.3 mph 25.3 mph N/A   Overcast